| time (UTC) | temp C | wind direction | speed KPH | gust KPH | rain 1hr cm | rain 24hr cm | rain mn cm | humidity % | barometer mb |
| 20260904090530 | 12 | 305 | 8.0 | 16.1 | 0.00 | 0.00 | 0.00 | 75 | 1019.4 |
| 20260904085517 | 12 | 306 | 8.0 | 14.5 | 0.00 | 0.00 | 0.00 | 72 | 1019.3 |
| 20260904084524 | 12 | 292 | 8.0 | 19.3 | 0.00 | 0.00 | 0.00 | 72 | 1019.3 |
| 20260904083530 | 12 | 303 | 11.3 | 22.5 | 0.00 | 0.00 | 0.00 | 71 | 1019.2 |
| 20260904082516 | 12 | 291 | 8.0 | 19.3 | 0.00 | 0.00 | 0.00 | 71 | 1019.2 |
| 20260904081531 | 13 | 291 | 9.7 | 17.7 | 0.00 | 0.00 | 0.00 | 69 | 1019.0 |
| 20260904080528 | 13 | 278 | 8.0 | 14.5 | 0.00 | 0.00 | 0.00 | 70 | 1019.0 |
| 20260904075535 | 13 | 297 | 9.7 | 17.7 | 0.00 | 0.00 | 0.00 | 69 | 1019.0 |
| 20260904074519 | 13 | 275 | 9.7 | 12.9 | 0.00 | 0.00 | 0.00 | 68 | 1018.8 |
| 20260904073524 | 13 | 287 | 9.7 | 20.9 | 0.00 | 0.00 | 0.00 | 66 | 1018.9 |
| 20260904072529 | 13 | 280 | 11.3 | 25.7 | 0.00 | 0.00 | 0.00 | 65 | 1018.8 |
| 20260904071535 | 13 | 283 | 8.0 | 14.5 | 0.00 | 0.00 | 0.00 | 64 | 1018.7 |
| 20260904070523 | 14 | 281 | 9.7 | 17.7 | 0.00 | 0.00 | 0.00 | 64 | 1018.5 |
| 20260904065542 | 14 | 284 | 9.7 | 17.7 | 0.00 | 0.00 | 0.00 | 63 | 1018.3 |
| 20260904064535 | 14 | 277 | 9.7 | 14.5 | 0.00 | 0.00 | 0.00 | 62 | 1018.3 |
| 20260904063519 | 14 | 259 | 6.4 | 12.9 | 0.00 | 0.00 | 0.00 | 62 | 1018.4 |
| 20260904062528 | 14 | 270 | 12.9 | 24.1 | 0.00 | 0.00 | 0.00 | 61 | 1018.2 |
| 20260904061532 | 15 | 274 | 8.0 | 16.1 | 0.00 | 0.00 | 0.00 | 60 | 1018.1 |
| 20260904060518 | 14 | 272 | 9.7 | 20.9 | 0.00 | 0.00 | 0.00 | 59 | 1018.2 |
| 20260904055524 | 14 | 280 | 8.0 | 19.3 | 0.00 | 0.00 | 0.00 | 59 | 1018.3 |
| 20260904054530 | 14 | 290 | 9.7 | 19.3 | 0.00 | 0.00 | 0.00 | 58 | 1018.2 |
| 20260904053516 | 15 | 279 | 11.3 | 20.9 | 0.00 | 0.00 | 0.00 | 57 | 1018.2 |
| 20260904052523 | 15 | 261 | 12.9 | 19.3 | 0.00 | 0.00 | 0.00 | 56 | 1018.2 |
| 20260904051529 | 15 | 262 | 12.9 | 27.4 | 0.00 | 0.00 | 0.00 | 56 | 1018.4 |
| 20260904050516 | 15 | 275 | 16.1 | 30.6 | 0.00 | 0.00 | 0.00 | 54 | 1018.2 |
| 20260904045523 | 15 | 264 | 9.7 | 22.5 | 0.00 | 0.00 | 0.00 | 52 | 1018.2 |
| 20260904044531 | 15 | 261 | 12.9 | 24.1 | 0.00 | 0.00 | 0.00 | 50 | 1018.3 |
| 20260904043517 | 16 | 299 | 16.1 | 27.4 | 0.00 | 0.00 | 0.00 | 50 | 1018.3 |
| 20260904042522 | 15 | 280 | 14.5 | 27.4 | 0.00 | 0.00 | 0.00 | 51 | 1018.4 |
| 20260904041529 | 15 | 272 | 11.3 | 20.9 | 0.00 | 0.00 | 0.00 | 52 | 1018.3 |
| 20260904040535 | 15 | 293 | 12.9 | 24.1 | 0.00 | 0.00 | 0.00 | 51 | 1018.2 |
| 20260904035521 | 15 | 258 | 11.3 | 17.7 | 0.00 | 0.00 | 0.00 | 51 | 1018.2 |
| 20260904034528 | 16 | 289 | 11.3 | 24.1 | 0.00 | 0.00 | 0.00 | 50 | 1018.4 |
| 20260904033533 | 15 | 285 | 12.9 | 20.9 | 0.00 | 0.00 | 0.00 | 51 | 1018.2 |
| 20260904032530 | 15 | 307 | 12.9 | 20.9 | 0.00 | 0.00 | 0.00 | 50 | 1018.4 |
| 20260904031521 | 15 | 296 | 9.7 | 16.1 | 0.00 | 0.00 | 0.00 | 51 | 1018.6 |
| 20260904030536 | 15 | 300 | 12.9 | 22.5 | 0.00 | 0.00 | 0.00 | 49 | 1018.6 |
| 20260904025533 | 15 | 239 | 8.0 | 16.1 | 0.00 | 0.00 | 0.00 | 50 | 1019.0 |
| 20260904024519 | 14 | 270 | 6.4 | 12.9 | 0.00 | 0.00 | 0.00 | 54 | 1019.2 |
| 20260904023524 | 15 | 247 | 8.0 | 14.5 | 0.00 | 0.00 | 0.00 | 54 | 1019.7 |
| 20260904022530 | 15 | 272 | 12.9 | 24.1 | 0.00 | 0.00 | 0.00 | 52 | 1020.0 |
| 20260904021517 | 15 | 278 | 11.3 | 25.7 | 0.00 | 0.00 | 0.00 | 54 | 1020.0 |
| 20260904020531 | 15 | 262 | 9.7 | 20.9 | 0.00 | 0.00 | 0.00 | 56 | 1020.3 |
| 20260904015531 | 15 | 241 | 9.7 | 20.9 | 0.00 | 0.00 | 0.00 | 57 | 1020.4 |
| 20260904014517 | 14 | 290 | 14.5 | 22.5 | 0.00 | 0.00 | 0.00 | 57 | 1020.7 |
| 20260904013524 | 14 | 274 | 11.3 | 22.5 | 0.00 | 0.00 | 0.00 | 59 | 1020.7 |
| 20260904012530 | 14 | 303 | 14.5 | 27.4 | 0.00 | 0.00 | 0.00 | 57 | 1020.5 |
| 20260904011516 | 14 | 306 | 9.7 | 19.3 | 0.00 | 0.00 | 0.00 | 58 | 1020.7 |
| 20260904010523 | 14 | 261 | 6.4 | 12.9 | 0.00 | 0.00 | 0.00 | 55 | 1020.7 |
| 20260904005531 | 14 | 269 | 9.7 | 17.7 | 0.00 | 0.00 | 0.00 | 54 | 1020.7 |
| 20260904004535 | 14 | 291 | 9.7 | 20.9 | 0.00 | 0.00 | 0.00 | 64 | 1020.7 |
| 20260904003521 | 13 | 333 | 6.4 | 14.5 | 0.00 | 0.00 | 0.00 | 71 | 1020.8 |
| 20260904002528 | 13 | 315 | 9.7 | 17.7 | 0.00 | 0.00 | 0.00 | 65 | 1021.0 |
| 20260904001535 | 13 | 316 | 8.0 | 12.9 | 0.00 | 0.00 | 0.00 | 69 | 1021.0 |
| 20260904000521 | 12 | 329 | 3.2 | 11.3 | 0.00 | 0.00 | 0.00 | 74 | 1021.2 |
| 20260903235529 | 11 | 332 | 6.4 | 11.3 | 0.00 | 0.00 | 0.00 | 79 | 1021.6 |
| 20260903234534 | 11 | 322 | 6.4 | 11.3 | 0.00 | 0.00 | 0.00 | 82 | 1021.7 |
| 20260903233526 | 11 | 321 | 6.4 | 16.1 | 0.00 | 0.00 | 0.00 | 84 | 1021.9 |
| 20260903232534 | 11 | 320 | 11.3 | 16.1 | 0.00 | 0.00 | 0.00 | 85 | 1021.8 |
| 20260903231533 | 11 | 348 | 6.4 | 11.3 | 0.00 | 0.00 | 0.00 | 86 | 1021.7 |
| 20260903230518 | 11 | 328 | 8.0 | 17.7 | 0.00 | 0.00 | 0.00 | 85 | 1021.7 |
| 20260903225523 | 10 | 335 | 8.0 | 14.5 | 0.00 | 0.00 | 0.00 | 87 | 1021.8 |
| 20260903224529 | 10 | 327 | 8.0 | 14.5 | 0.00 | 0.00 | 0.00 | 88 | 1021.6 |
| 20260903223524 | 9 | 306 | 4.8 | 11.3 | 0.00 | 0.00 | 0.00 | 90 | 1021.6 |
| 20260903222529 | 10 | 308 | 6.4 | 9.7 | 0.00 | 0.00 | 0.00 | 88 | 1021.7 |
| 20260903221535 | 9 | 296 | 6.4 | 12.9 | 0.00 | 0.00 | 0.00 | 88 | 1021.5 |
| 20260903220520 | 10 | 305 | 6.4 | 12.9 | 0.00 | 0.00 | 0.00 | 87 | 1021.5 |
| 20260903215528 | 9 | 349 | 1.6 | 4.8 | 0.00 | 0.00 | 0.00 | 88 | 1021.2 |
| 20260903214533 | 10 | 330 | 4.8 | 9.7 | 0.00 | 0.00 | 0.00 | 87 | 1020.7 |
| 20260903213519 | 9 | 7 | 3.2 | 6.4 | 0.00 | 0.00 | 0.00 | 90 | 1020.4 |
| 20260903212523 | 8 | 10 | 3.2 | 6.4 | 0.00 | 0.00 | 0.00 | 92 | 1020.7 |
| 20260903211529 | 9 | 24 | 3.2 | 6.4 | 0.00 | 0.00 | 0.00 | 93 | 1020.5 |
| 20260903210536 | 9 | 13 | 1.6 | 1.6 | 0.00 | 0.00 | 0.00 | 93 | 1020.3 |
| 20260903205529 | 9 | 335 | 1.6 | 4.8 | 0.00 | 0.00 | 0.00 | 93 | 1020.3 |
| 20260903205020 | 9 | 332 | 1.6 | 4.8 | 0.00 | 0.00 | 0.00 | 93 | 1020.1 |
| 20260903204535 | 9 | 345 | 1.6 | 4.8 | 0.00 | 0.00 | 0.00 | 94 | 1020.0 |
| 20260903203520 | 8 | 355 | 1.6 | 4.8 | 0.00 | 0.00 | 0.00 | 94 | 1020.2 |
| 20260903202527 | 8 | 17 | 1.6 | 4.8 | 0.00 | 0.00 | 0.00 | 94 | 1020.1 |
| 20260903201534 | 8 | 199 | 0.0 | 3.2 | 0.00 | 0.00 | 0.00 | 94 | 1019.9 |
| 20260903201018 | 8 | 16 | 1.6 | 4.8 | 0.00 | 0.00 | 0.00 | 93 | 1019.9 |
| 20260903200024 | 8 | 19 | 3.2 | 4.8 | 0.00 | 0.00 | 0.00 | 93 | 1020.0 |
| 20260903195521 | 8 | 360 | 1.6 | 4.8 | 0.00 | 0.00 | 0.00 | 93 | 1020.0 |
| 20260903194535 | 8 | 349 | 3.2 | 4.8 | 0.00 | 0.00 | 0.00 | 93 | 1019.9 |
| 20260903194033 | 8 | 354 | 3.2 | 4.8 | 0.00 | 0.00 | 0.00 | 93 | 1019.7 |
| 20260903193019 | 8 | 3 | 3.2 | 6.4 | 0.00 | 0.00 | 0.00 | 93 | 1019.6 |
| 20260903192027 | 8 | 12 | 3.2 | 4.8 | 0.00 | 0.00 | 0.00 | 93 | 1019.6 |
| 20260903191033 | 8 | 7 | 1.6 | 4.8 | 0.00 | 0.00 | 0.00 | 93 | 1019.5 |
| 20260903154519 | 11 | 7 | 3.2 | 6.4 | 0.00 | 0.00 | 0.00 | 82 | 1019.0 |
| 20260903153535 | 12 | 340 | 3.2 | 9.7 | 0.00 | 0.00 | 0.00 | 71 | 1019.1 |
| 20260903152517 | 11 | 262 | 6.4 | 11.3 | 0.00 | 0.00 | 0.00 | 71 | 1019.0 |
| 20260903151526 | 11 | 281 | 4.8 | 9.7 | 0.00 | 0.00 | 0.00 | 74 | 1019.0 |
| 20260903150534 | 11 | 325 | 4.8 | 9.7 | 0.00 | 0.00 | 0.00 | 77 | 1019.2 |
| 20260903145522 | 11 | 284 | 3.2 | 4.8 | 0.00 | 0.00 | 0.00 | 78 | 1019.1 |
| 20260903144537 | 11 | 335 | 6.4 | 14.5 | 0.00 | 0.00 | 0.00 | 79 | 1019.2 |
| 20260903143518 | 11 | 322 | 3.2 | 6.4 | 0.00 | 0.00 | 0.00 | 78 | 1019.1 |
| 20260903142524 | 11 | 294 | 4.8 | 11.3 | 0.00 | 0.00 | 0.00 | 78 | 1019.2 |
| 20260903141531 | 11 | 281 | 4.8 | 9.7 | 0.00 | 0.00 | 0.00 | 77 | 1019.2 |
| 20260903140535 | 11 | 305 | 4.8 | 14.5 | 0.00 | 0.00 | 0.00 | 76 | 1019.3 |
| 20260903135522 | 11 | 276 | 4.8 | 12.9 | 0.00 | 0.00 | 0.00 | 74 | 1019.2 |
| 20260903134528 | 11 | 217 | 3.2 | 8.0 | 0.00 | 0.00 | 0.00 | 72 | 1019.2 |
| 20260903133534 | 12 | 242 | 3.2 | 8.0 | 0.00 | 0.00 | 0.00 | 69 | 1019.3 |
| 20260903132519 | 12 | 288 | 3.2 | 8.0 | 0.00 | 0.00 | 0.00 | 68 | 1019.3 |
| 20260903131534 | 12 | 287 | 4.8 | 11.3 | 0.00 | 0.00 | 0.00 | 67 | 1019.3 |
| 20260903130531 | 12 | 281 | 6.4 | 14.5 | 0.00 | 0.00 | 0.00 | 66 | 1019.3 |
| 20260903125518 | 12 | 268 | 6.4 | 17.7 | 0.00 | 0.00 | 0.00 | 68 | 1019.3 |
| 20260903124529 | 12 | 278 | 8.0 | 19.3 | 0.00 | 0.00 | 0.00 | 69 | 1019.4 |
| 20260903123528 | 12 | 282 | 4.8 | 14.5 | 0.00 | 0.00 | 0.00 | 71 | 1019.3 |
| 20260903122535 | 11 | 313 | 8.0 | 14.5 | 0.00 | 0.00 | 0.00 | 74 | 1019.3 |
| 20260903121520 | 11 | 295 | 4.8 | 11.3 | 0.00 | 0.00 | 0.00 | 74 | 1019.3 |
| 20260903120527 | 11 | 314 | 8.0 | 14.5 | 0.00 | 0.00 | 0.00 | 75 | 1019.2 |
| 20260903115535 | 12 | 282 | 8.0 | 16.1 | 0.00 | 0.00 | 0.00 | 72 | 1019.2 |
| 20260903114522 | 11 | 275 | 8.0 | 14.5 | 0.00 | 0.00 | 0.00 | 75 | 1019.2 |
| 20260903113528 | 11 | 281 | 6.4 | 12.9 | 0.00 | 0.00 | 0.00 | 76 | 1019.1 |
| 20260903112535 | 11 | 294 | 9.7 | 22.5 | 0.00 | 0.00 | 0.00 | 75 | 1019.1 |
| 20260903111520 | 11 | 294 | 6.4 | 12.9 | 0.00 | 0.00 | 0.00 | 75 | 1019.0 |
| 20260903110526 | 12 | 290 | 9.7 | 16.1 | 0.00 | 0.00 | 0.00 | 72 | 1018.9 |
| 20260903105540 | 12 | 276 | 8.0 | 12.9 | 0.00 | 0.00 | 0.00 | 72 | 1018.9 |
| 20260903104518 | 11 | 285 | 8.0 | 14.5 | 0.00 | 0.00 | 0.00 | 73 | 1018.9 |
| 20260903103524 | 12 | 282 | 8.0 | 14.5 | 0.00 | 0.00 | 0.00 | 73 | 1018.7 |
| 20260903102531 | 11 | 278 | 9.7 | 16.1 | 0.00 | 0.00 | 0.00 | 74 | 1018.4 |
| 20260903101542 | 12 | 281 | 9.7 | 17.7 | 0.00 | 0.00 | 0.00 | 72 | 1018.2 |
| 20260903100529 | 12 | 269 | 9.7 | 12.9 | 0.00 | 0.00 | 0.00 | 71 | 1018.3 |
| 20260903095522 | 12 | 284 | 9.7 | 20.9 | 0.00 | 0.00 | 0.00 | 70 | 1018.2 |
| 20260903094526 | 12 | 263 | 9.7 | 16.1 | 0.00 | 0.00 | 0.00 | 71 | 1018.1 |
| 20260903093536 | 12 | 275 | 8.0 | 12.9 | 0.00 | 0.00 | 0.00 | 69 | 1018.0 |
| 20260903092536 | 12 | 263 | 8.0 | 14.5 | 0.00 | 0.00 | 0.00 | 68 | 1017.9 |
| 20260903091522 | 12 | 263 | 8.0 | 16.1 | 0.00 | 0.00 | 0.00 | 68 | 1017.7 |